OneWeb SL0171

operational
NORAD ID: 48070 Int'l Des: 2021-025 Owner: ONEWEBN Country: UK Constellation: oneweb
LEOCIRCULARPOLARONEWEB_TYPE

OneWeb SL0171について

説明を読み込み中...

リアルタイム位置

3D地球を読み込み中...

次回通過

高度履歴

Altitude vs Time

uPlot chart will show altitude changes over time

軌道要素

1 48070U 21025AE 25304.71403341 .00000255 00000-0 66234-3 0 9992
2 48070 87.9019 5.6532 0001940 101.0447 259.0900 13.13470912223628
Epoch: Oct 31, 2025 • Age: 21 hours

現在のステータス

高度 1221.9 km
速度 7.25 km/s
衛星直下点 81.86°N, 76.55°W
打ち上げ日 Mar 25, 2021
運用期間 4.6 years
タイプ internet

技術仕様

分類 Payload
質量 148.00 kg
乾燥質量 140.00 kg
総質量 148.00 kg
長さ 1.30 m
直径 1.00 m
スパン 5.00 m
形状 Trapezoid+2 pan
製造者 ONEWUS
バスタイプ ARROW
フェーズステータス In Orbit
所有者/国 ONEWEBN/UK

大規模コンステレーション

Loading constellations...